Vertical_Velocity
-7 -6 -4 -0 -2 -6 -3 -4 -4 -2 -2 -1 -1 -2 -4 3 1 -4 -9 -0 8 4 -7 4 -6 1 5 12 3 -13 2 -7 -6 7 1 6 8 5 10 -17 -28 -10 -8 -9
-6 -5 -5 -3 -1 -3 -4 -3 -5 -2 -2 -1 3 -3 -4 -1 1 -9 1 -6 1 11 -3 -3 -3 -3 13 5 11 -1 3 -9 -1 7 0 -16 -34 -9 3 10 20 -11 10 8
-3 -6 -6 -4 -1 -3 -5 -3 -5 -6 -4 -3 0 2 1 6 -5 4 -0 2 -3 -3 10 5 20 3 8 -4 -1 15 27 5 -11 -21 25 39 1 5 8 12 -6 5 -20 1
-4 -7 1 -10 -3 1 0 -1 -5 -7 -6 -4 -4 -2 2 4 10 -4 -7 1 3 -4 -0 6 1 -1 4 -4 2 1 12 -6 -4 8 8 -8 3 19 12 -19 12 -24 19 -7
-6 -5 -8 -3 2 -8 -3 -1 -1 -5 -4 -3 -3 -2 -5 -1 -3 1 8 1 -11 -13 -3 9 2 3 5 5 1 4 4 -19 4 -6 3 -5 -4 17 8 -20 8 -16 3 0
-4 -4 -7 -5 2 3 -14 -12 -2 -2 1 -4 -1 -4 -6 -4 -8 12 -8 -1 -3 -17 0 -8 1 -7 -10 8 3 15 2 -4 8 -10 -1 7 6 -39 -16 10 22 -1 -20 8
-1 -4 -5 -6 -6 -3 -1 2 1 2 -5 -8 -1 -1 -2 1 -6 -11 2 -6 -10 -5 -9 -0 -8 -4 2 -3 -11 -0 -9 -2 2 -4 19 4 -82 9 -2 -5 10 -19 -2 3
-3 -2 -3 -3 -7 -5 -2 -1 2 1 0 1 -4 -7 -1 -1 0 -10 -8 -7 -0 -7 -3 5 7 6 0 2 3 -2 -4 15 -6 -3 1 -19 2 -32 -39 -18 14 16 1 -3
-4 -2 -0 -2 -4 -7 -5 -5 -5 -2 -1 1 1 -2 -1 7 6 5 -7 6 15 -4 -5 -8 14 1 -7 -4 -4 2 4 3 3 5 7 -33 14 7 4 4 -23 -0 -11 -2
-3 -1 -0 -1 1 -7 -3 -1 -2 -3 0 -2 -2 -2 -2 0 2 -5 -2 -4 -5 5 -5 -2 -2 -9 -3 -1 -10 -1 4 3 -4 17 4 -14 2 6 11 25 -85 -3 7 10
-2 -3 -2 0 1 0 -6 -1 -7 -0 -1 -3 -2 -2 -1 -2 -0 -2 2 7 9 -1 6 4 0 42 -3 13 21 7 5 8 2 15 20 -28 5 6 -5 1 -3 7 13 12
-2 -2 -3 -2 1 0 -4 -6 -2 -6 -4 -1 0 -2 -1 -1 -2 4 1 -1 5 1 5 2 7 -1 2 12 6 -0 5 -7 -1 8 -2 4 11 13 11 -0 -5 0 0 3
-2 -2 -3 -5 -1 1 0 -5 -4 -2 -6 -1 -1 -1 -2 -1 -1 -2 2 3 4 2 3 -1 7 0 1 -6 -2 0 -5 2 -9 2 -5 -1 0 1 4 1 -2 0 -2 1
-2 -2 0 -1 1 -4 -2 -2 -4 -4 -6 -3 4 -0 -1 -2 -1 -1 -1 0 1 0 -1 5 13 5 7 0 -3 -5 9 9 2 -6 -6 -0 -5 -1 8 5 -1 -4 -2 3
-3 -4 -4 -0 -1 1 -1 -1 -1 -4 -2 -6 -10 -6 1 1 -1 -1 -0 -2 -1 0 -0 1 3 5 6 -0 4 4 3 4 -3 0 2 -2 4 1 0 9 -1 -0 4 -2
-1 -2 -2 -8 -3 -1 1 11 2 -2 -4 -2 -4 -10 -4 -6 -3 0 -0 -1 -1 -2 1 1 -2 2 7 1 2 -6 -2 3 -1 0 -2 -5 0 1 6 3 4 7 11 11
-2 -2 1 -1 -7 -3 -4 -0 2 -3 -0 -3 -1 1 -4 -1 -2 -4 -4 2 -1 1 -3 -1 -0 4 3 1 -4 1 -1 1 -1 13 5 15 4 2 5 6 7 7 5 1
3 -3 -3 -4 1 -3 -10 1 -1 -6 -4 -6 -8 -2 -8 -6 1 -3 -2 -5 -0 3 2 1 -2 0 -1 1 1 -3 -1 -4 -3 -1 -0 1 2 4 1 -1 -2 15 -3 11
-3 1 -2 1 -4 -3 -1 3 -1 -3 -4 -6 -4 -17 -6 0 -3 -2 -1 -1 -1 1 -1 1 1 2 -0 1 -2 -0 4 3 -2 5 4 2 -0 10 4 2 7 1 14 10
-1 -5 -5 -2 -0 2 6 -1 -6 -3 1 -7 -1 -3 -13 -4 -5 -1 -2 -0 -2 -1 -2 2 1 1 3 2 2 1 1 2 1 5 3 -1 -3 5 6 4 4 2 4 6
1 3 -1 -1 -2 -0 -1 -2 -4 -4 -5 -6 -7 -11 -9 -5 -4 -2 -3 -5 -3 -0 -2 0 0 1 2 2 1 1 -0 -0 -0 1 3 -0 1 0 1 -1 -2 1 3 3
-4 -2 1 0 -6 -3 -10 -7 -4 -10 -9 1 -4 2 -7 -11 -6 -5 -4 -2 -3 -1 3 0 0 1 3 3 2 0 -1 0 2 4 4 4 4 4 2 0 2 4 5 5
0 -5 -9 -5 -0 2 -2 -8 -1 -3 -2 -3 -0 2 -1 -8 -9 -5 -4 -4 -2 -1 3 -1 -0 1 1 3 3 3 2 1 1 3 4 6 7 7 5 6 4 2 1 3
-6 -2 -1 5 -6 -8 -7 -5 -4 -3 -3 -3 -2 -5 -1 -5 -7 -6 -3 -2 -2 -2 -0 -1 1 1 2 2 5 7 5 4 3 4 6 5 5 8 8 7 3 4 5 5
1 -4 -6 -2 -4 -3 -1 0 -4 -5 -2 -3 -4 -1 -0 -2 -7 -5 -5 -5 -5 -3 -1 -1 -0 -1 1 1 2 5 7 6 5 6 6 6 8 7 7 8 6 3 3 4
-5 8 0 2 -1 -4 -1 -1 -1 -4 -4 -3 -2 -3 -9 -2 -2 -6 -3 -2 -1 -1 -0 0 -1 -1 -1 -0 1 3 5 9 11 9 7 7 9 7 7 9 8 6 4 2
-3 -0 -2 -1 -1 0 -2 0 0 -1 -3 -4 -4 -8 -6 -2 -7 -6 -5 -3 -1 -1 -1 1 -0 -1 0 1 1 2 4 5 7 9 10 9 8 8 8 8 6 5 3 3
Height
5592 5575 5557 5538 5519 5503 5496 5492 5491 5491 5490 5491 5491 5490 5490 5491 5490 5490 5495 5500 5504 5511 5515 5525 5534 5544 5558 5572 5580 5586 5595 5601 5613 5622 5631 5642 5650 5660 5668 5671 5677 5683 5691 5699
5594 5579 5562 5545 5526 5510 5499 5495 5492 5491 5490 5491 5492 5490 5489 5489 5490 5488 5493 5495 5501 5505 5513 5523 5532 5541 5556 5563 5571 5577 5585 5588 5599 5610 5619 5628 5637 5651 5659 5665 5670 5672 5685 5694
5599 5583 5567 5551 5533 5516 5503 5496 5494 5492 5491 5492 5492 5493 5490 5488 5488 5488 5490 5494 5496 5501 5507 5512 5523 5535 5546 5550 5558 5570 5580 5582 5589 5600 5616 5623 5626 5636 5644 5650 5655 5663 5670 5686
5601 5588 5572 5555 5540 5524 5510 5500 5497 5495 5494 5494 5493 5492 5492 5490 5489 5488 5487 5492 5491 5493 5502 5510 5518 5527 5534 5545 5554 5558 5566 5571 5580 5592 5602 5612 5622 5633 5638 5641 5654 5654 5670 5675
5604 5590 5578 5564 5543 5529 5517 5505 5499 5495 5494 5494 5494 5493 5491 5490 5489 5486 5487 5484 5488 5494 5502 5508 5514 5523 5529 5539 5548 5553 5560 5562 5572 5579 5589 5600 5607 5617 5624 5633 5643 5650 5659 5665
5606 5594 5580 5567 5553 5535 5521 5509 5500 5496 5494 5494 5494 5493 5491 5489 5487 5487 5481 5480 5483 5489 5494 5501 5509 5518 5523 5533 5539 5547 5553 5559 5567 5571 5579 5586 5587 5600 5615 5626 5633 5639 5642 5656
5608 5595 5583 5570 5558 5545 5531 5518 5505 5496 5492 5493 5493 5491 5490 5488 5485 5479 5479 5479 5479 5484 5492 5498 5505 5512 5517 5524 5532 5541 5549 5555 5561 5565 5572 5568 5582 5594 5606 5613 5621 5629 5637 5645
5610 5597 5585 5573 5561 5549 5535 5522 5510 5500 5492 5489 5490 5490 5488 5486 5483 5478 5475 5474 5475 5478 5490 5499 5503 5509 5513 5520 5526 5534 5543 5548 5552 5554 5560 5565 5572 5583 5598 5605 5612 5617 5622 5630
5611 5599 5587 5576 5563 5551 5539 5525 5513 5502 5494 5489 5487 5488 5487 5485 5483 5477 5471 5469 5466 5475 5485 5492 5497 5504 5511 5516 5521 5528 5534 5537 5545 5547 5548 5554 5574 5578 5587 5595 5589 5608 5616 5621
5612 5601 5589 5577 5567 5555 5544 5531 5517 5505 5495 5488 5486 5486 5485 5483 5481 5475 5470 5468 5467 5470 5480 5487 5496 5502 5507 5510 5509 5520 5524 5528 5534 5539 5541 5550 5565 5570 5572 5568 5588 5602 5606 5611
5613 5603 5592 5579 5570 5558 5548 5537 5524 5512 5500 5490 5485 5483 5483 5481 5479 5476 5473 5471 5470 5472 5477 5484 5489 5494 5499 5501 5506 5513 5519 5523 5527 5532 5535 5545 5556 5555 5556 5568 5575 5583 5589 5597
5612 5602 5592 5582 5570 5561 5550 5540 5528 5516 5506 5496 5485 5481 5479 5479 5478 5476 5473 5472 5471 5471 5474 5478 5483 5489 5494 5497 5501 5506 5512 5516 5521 5527 5531 5540 5540 5543 5547 5552 5561 5566 5570 5576
5610 5602 5592 5583 5572 5562 5553 5543 5533 5520 5508 5498 5487 5480 5476 5475 5474 5474 5473 5471 5470 5471 5473 5477 5480 5483 5487 5492 5495 5500 5505 5509 5512 5516 5523 5528 5530 5532 5536 5540 5547 5553 5556 5561
5608 5599 5591 5582 5573 5562 5553 5544 5535 5524 5512 5501 5492 5480 5475 5471 5470 5470 5470 5469 5468 5468 5469 5470 5473 5478 5481 5485 5489 5493 5498 5501 5505 5508 5513 5518 5520 5522 5525 5529 5535 5540 5545 5548
5606 5597 5588 5580 5572 5561 5551 5543 5534 5524 5515 5502 5493 5483 5475 5468 5464 5463 5464 5464 5465 5464 5465 5465 5467 5470 5474 5477 5481 5483 5486 5490 5496 5500 5503 5507 5510 5512 5516 5521 5524 5529 5533 5537
5603 5595 5587 5579 5571 5561 5553 5547 5536 5527 5516 5504 5494 5484 5473 5464 5459 5457 5456 5457 5458 5458 5458 5458 5460 5460 5463 5466 5471 5475 5477 5481 5486 5491 5494 5496 5499 5501 5506 5510 5515 5519 5523 5527
5599 5591 5584 5576 5568 5560 5550 5542 5534 5525 5515 5505 5495 5484 5473 5463 5455 5449 5447 5447 5448 5450 5451 5451 5452 5453 5454 5458 5461 5465 5468 5473 5476 5479 5482 5486 5490 5494 5496 5499 5503 5507 5510 5513
5594 5587 5579 5571 5563 5554 5545 5538 5529 5520 5512 5502 5493 5484 5472 5462 5453 5445 5439 5437 5437 5438 5440 5443 5444 5445 5446 5449 5452 5455 5458 5462 5465 5468 5472 5476 5480 5484 5486 5489 5492 5496 5500 5504
5589 5582 5574 5567 5560 5551 5543 5534 5525 5515 5509 5499 5489 5480 5473 5462 5449 5439 5433 5429 5427 5429 5429 5432 5435 5435 5437 5438 5441 5444 5447 5450 5454 5458 5461 5465 5468 5473 5476 5480 5483 5486 5490 5494
5582 5576 5569 5563 5555 5546 5539 5528 5520 5511 5505 5494 5485 5475 5464 5456 5443 5434 5426 5421 5418 5418 5420 5421 5423 5425 5427 5428 5430 5432 5435 5438 5442 5446 5450 5453 5458 5462 5465 5468 5471 5474 5478 5482
5577 5570 5564 5556 5548 5541 5532 5522 5515 5507 5499 5491 5480 5470 5461 5451 5441 5430 5420 5415 5410 5409 5412 5412 5413 5416 5417 5419 5420 5422 5424 5427 5431 5434 5438 5441 5446 5449 5452 5455 5459 5462 5465 5468
5569 5564 5555 5549 5541 5532 5524 5517 5509 5501 5493 5485 5476 5467 5456 5446 5435 5425 5416 5409 5404 5402 5403 5403 5404 5406 5407 5409 5410 5412 5414 5416 5419 5422 5426 5429 5433 5436 5439 5443 5446 5449 5452 5454
5561 5555 5548 5542 5535 5526 5517 5510 5503 5496 5488 5479 5470 5460 5451 5440 5430 5420 5410 5402 5399 5394 5394 5395 5396 5397 5398 5400 5401 5403 5405 5408 5409 5412 5415 5417 5421 5424 5428 5431 5434 5437 5440 5442
5551 5545 5538 5532 5524 5517 5511 5504 5496 5489 5480 5472 5462 5451 5444 5434 5424 5413 5404 5398 5391 5387 5386 5387 5388 5389 5391 5392 5393 5395 5396 5398 5401 5403 5405 5407 5410 5413 5416 5419 5422 5425 5429 5432
5542 5535 5529 5523 5517 5510 5503 5495 5488 5480 5472 5464 5455 5445 5437 5428 5418 5408 5398 5390 5385 5381 5379 5378 5378 5380 5382 5384 5386 5387 5389 5391 5393 5395 5398 5401 5404 5407 5410 5413 5416 5418 5421 5424
5533 5528 5521 5515 5508 5501 5494 5487 5479 5471 5463 5455 5447 5437 5427 5420 5412 5402 5392 5384 5378 5374 5370 5369 5369 5371 5373 5375 5377 5379 5381 5384 5386 5388 5390 5394 5397 5400 5403 5406 5409 5411 5413 5416
5522 5518 5511 5506 5499 5492 5484 5478 5470 5462 5454 5445 5436 5426 5419 5411 5402 5393 5385 5377 5370 5364 5361 5359 5359 5361 5363 5365 5367 5370 5373 5375 5378 5381 5383 5386 5389 5392 5395 5398 5400 5403 5404 5406